Other Public Products
Issued by NWS Grand Forks, ND

Home | Current Version | Previous Version | Graphics & Text | Print | Product List | Glossary On
Versions: 1 2 3 4 5 6 7 8 9 10 11 12 13 14 15 16 17 18 19 20 21 22 23 24 25 26 27 28 29 30 31 32 33 34 35 36 37 38 39 40 41 42 43 44 45 46 47 48 49 50
000
FPUS83 KFGF 290210
OPUFGF
PRAIRIE TO PINES WEATHER ROUNDUP
NATIONAL WEATHER SERVICE EASTERN NORTH DAKOTA/GRAND FORKS ND
900 PM CDT SAT MAY 28 2016

 **SATELLITE DATA USED TO AUGMENT SKY COVER AT AUTOMATED STATIONS**
 *****  WEATHER ACROSS EASTERN NORTH DAKOTA  *****

CITY           SKY/WX    TMP DP  RH WIND       PRES   REMARKS
GRAND FORKS    CLOUDY    62  59  90 N6        29.85R
GRAND FORKS AF CLOUDY    61  61 100 NE7       29.86S
GRAND CITY NWS   N/A     61 N/A N/A N7          N/A
BUXTON           N/A     63  62  96 N6          N/A
DEVILS LAKE    CLOUDY    63  58  83 NE14      29.89R
FARGO          LGT RAIN  63  59  87 N7        29.83S FOG
WAHPETON ARPT  CLOUDY    63  55  77 NW7       29.84R
$$

 *****  WEATHER ACROSS CENTRAL AND WESTERN NORTH DAKOTA  *****

CITY           SKY/WX    TMP DP  RH WIND       PRES   REMARKS
JAMESTOWN      CLOUDY    67  55  65 NE3       29.86R
BISMARCK       CLOUDY    60  56  86 S3        29.91R
MINOT          CLOUDY    65  54  67 N8        29.90R
MINOT AFB      CLOUDY    63  54  73 NE8       29.89R
GARRISON         N/A     61  58  90 CALM      29.91R
WILLISTON      CLEAR     61  55  81 S3        29.93R
DICKINSON      PTCLDY    60  54  80 N3        29.94R
HETTINGER      CLOUDY    60  52  74 N7        29.96R
$$

 *****  OTHER OBSERVATIONS NORTHEAST NORTH DAKOTA  *****

CITY           SKY/WX    TMP DP  RH WIND       PRES   REMARKS
WALHALLA       FAIR      61  61 100 N8        29.89S
LANGDON        CLOUDY    61  61 100 N9        29.90F
CAVALIER       CLOUDY    64  59  82 N10       29.87R
GRAFTON        DRIZZLE   61  61 100 CALM      29.88S
CANDO          NOT AVBL
FORT TOTTEN      N/A     63  58  85 NE5       29.95S
ROLLA          CLOUDY    55  55 100 NE12      29.93S
RUGBY          FAIR      61  55  82 NE13      29.90R
 ***** THE ABOVE OBSERVATIONS ARE NON NWS ARE NOT QUALITY
        CONTROLLED AND MAY MIS-REPORT RAIN FOR SNOW...
$$

 *****  OTHER OBSERVATIONS SOUTHEAST NORTH DAKOTA *****

CITY           SKY/WX    TMP DP  RH WIND       PRES   REMARKS
COOPERSTOWN    NOT AVBL
VALLEY CITY    CLOUDY    64  63  94 E6        29.89R
OAKES            N/A    N/A N/A N/A MISG        N/A
GWINNER        MOCLDY    63  61  94 CALM      29.86S
BUFFALO          N/A     64  55  74 N3          N/A
WYNDMERE         N/A     63  57  82 N3          N/A
 ***** THE ABOVE OBSERVATIONS ARE NON NWS ARE NOT QUALITY
       CONTROLLED AND MAY MIS-REPORT RAIN FOR SNOW...
$$

  *****  WEATHER ACROSS NORTHERN MINNESOTA  *****

CITY           SKY/WX    TMP DP  RH WIND       PRES   REMARKS
FLAG ISLAND    CLOUDY    55  54  94 NE9       29.85F
WARROAD        NOT AVBL
ROSEAU         RAIN      57  54  88 NE7       29.86S
HALLOCK        CLOUDY    63  59  88 E5        29.86R
THF RVR FALLS  CLOUDY    59  55  88 N10       29.86R
HALSTAD        NOT AVBL
FOSSTON        CLOUDY    57  55  94 N6        29.83S
BAUDETTE       CLOUDY    56  54  93 N9        29.83S
WASKISH        RAIN      57  57 100 N6        29.82R
CROOKSTON      CLOUDY    61  61 100 NE5       29.85R
$$
  *****  WEATHER ACROSS CENTRAL AND WEST MINNESOTA  *****

CITY           SKY/WX    TMP DP  RH WIND       PRES   REMARKS
BEMIDJI        DRIZZLE   58  57  97 CALM      29.81S
PARK RAPIDS    CLOUDY    60  57  89 NW3       29.81R
WADENA         CLOUDY    57  57 100 CALM      29.82R
DETROIT LAKES  RAIN      59  57  94 N7        29.83S
MOORHEAD       CLOUDY    61  59  94 NW10      29.84S
FERGUS FALLS   DRIZZLE   61  61 100 N5        29.80S
ELBOW LAKE     DRIZZLE   61  58  91 N9        29.83S
MORRIS MN      CLOUDY    63  59  88 W3        29.82R
STAPLES        CLOUDY    59  55  88 W3        29.82R
WHEATON        CLOUDY    66  59  77 NW5       29.85R
$$
  *****  WEATHER ELSEWHERE ACROSS MINNESOTA  *****

CITY           SKY/WX    TMP DP  RH WIND       PRES   REMARKS
DULUTH         LGT RAIN  54  53  97 E5        29.80F VSB 1/4
INTRNTL FALLS  CLOUDY    57  56  96 VRB6      29.81S FOG
ELY            CLOUDY    61  61 100 CALM      29.80F
CLOQUET        DRIZZLE   54  52  94 CALM      29.81S
BRAINERD       CLOUDY    60  58  92 CALM      29.82R
HIBBING        CLOUDY    59  58  96 S3        29.80S
ALEXANDRIA     CLOUDY    60  56  86 NW3       29.84R
SAINT CLOUD    CLOUDY    62  59  90 N3        29.81R
MINNEAPOLIS    CLOUDY    64  60  87 N3        29.79S
$$

  *****  WEATHER ACROSS SOUTH DAKOTA  *****

CITY           SKY/WX    TMP DP  RH WIND       PRES   REMARKS
SIOUX FALLS    CLOUDY    61  58  90 NW6       29.87R
BROOKINGS      CLOUDY    61  58  90 W6        29.87R
WATERTOWN      MOCLDY    62  57  83 NW6       29.87R
HURON          CLOUDY    62  59  90 CALM      29.88R
SISSETON         N/A     62  58  86 NW7       29.84R
ABERDEEN       CLOUDY    65  58  78 SW5       29.88R
MITCHELL       PTCLDY    63  60  90 W3        29.90R
PIERRE         MOCLDY    64  54  69 N15G28    29.91R
MOBRIDGE       CLOUDY    63  55  75 NW6       29.90F
RAPID CITY     CLOUDY    59  52  77 CALM      29.97S
$$

  *****  SOME WEATHER IN NEARBY STATES *****

CITY           SKY/WX    TMP DP  RH WIND       PRES   REMARKS
GLASGOW MT     CLEAR     62  40  44 W7        29.93R
GREAT FALLS MT CLEAR     58  29  33 W12       29.99R
CHEYENNE WY    CLEAR     60  35  39 W8        30.09R
SCOTTSBLUFF NE CLEAR     65  47  52 SE9       30.02R
OMAHA NE       PTCLDY    69  56  62 NW9       29.90R
DES MOINES IA  PTCLDY    69  57  65 SW12      29.85S
DAVENPORT IA   MOCLDY    72  60  66 SW14      29.88R
CHICAGO IL     MOCLDY    77  63  61 S20G26    29.87F
EAU CLAIRE WI  CLOUDY    62  61  96 CALM      29.77F
LA CROSSE WI   LGT RAIN  65  62  90 N7        29.79R
$$

  *****  SOME NATIONAL WEATHER *****

CITY           SKY/WX    TMP DP  RH WIND       PRES   REMARKS
LA GUARDIA NY  PTCLDY    83  70  64 S8        30.10R
RALEIGH NC     CLOUDY    79  64  60 CALM      30.14R
ATLANTA GA     MOCLDY    76  54  46 CALM      30.11S
NEW ORLEANS LA CLOUDY    75  70  84 SE5       30.06R
OKLAHOMA CITY  CLEAR     71  64  78 SE7       29.98R
ALBUQUERQUE NM PTCLDY    78  19  11 SW7       30.03R
SALT LAKE CITY MOCLDY    73  37  27 N9        30.02R
LOS ANGELES CA CLOUDY    61  54  77 W9        29.91R
BOISE ID       SUNNY     69  28  21 N8        29.99S
SEATTLE WA     CLOUDY    55  53  93 SW7       30.04S
$$

*** WEATHER ACROSS MANITOBA...SASKATCHEWAN AND ONTARIO ***
                ***ONTARIO***

CITY           SKY/WX    TMP DP  RH WIND       PRES   REMARKS
GERALDTON      TSTM      57  55  94 NE9G17    29.88F VSB 3/4
THUNDER BAY    LGT RAIN  57  55  94 N2        29.81F VSB 1
SIOUX LOOKOUT  DRIZZLE   52  52 100 E5        29.89S FOG
TORONTO        MOCLDY    72  61  68 SE7       30.05R
BIG TROUT LK   CLEAR     52  45  76 E6        30.12F
PICKLE LAKE    LGT RAIN  50  48  93 NE9G17    29.99F FOG
DRYDEN         LGT RAIN  54  52  94 NE14G21   29.87S FOG
KENORA         DRIZZLE   54  54 100 NE9       29.88S FOG
$$
                *** MANITOBA***

CITY           SKY/WX    TMP DP  RH WIND       PRES   REMARKS
BRANDON        CLOUDY    54  52  94 E10       29.96R
DAUPHIN        CLOUDY    52  50  93 NE8       29.98R FOG
ISLAND LAKE    MOCLDY    48  45  87 NE5       30.06F
PILOT MOUND      N/A     57  55  94 N9          N/A
THE PAS        CLOUDY    52  41  66 E3        30.03S
THOMPSON       PTCLDY    50  39  66 E3        30.10S
WINNIPEG       MOCLDY    59  55  88 N9        29.90R
LYNN LAKE      CLEAR     52  37  58 SE8       30.06F
CHURCHILL      CLEAR     39  28  65 SE12      30.26S
GILLAM         MOCLDY    52  39  62 SE5       30.16S
$$
                ***SASKATCHEWAN***

CITY           SKY/WX    TMP DP  RH WIND       PRES   REMARKS
ESTEVAN        LGT RAIN  61  55  82 SE7       29.92R
KINDERSLEY     NOT AVBL
LLOYDMINSTER   CLOUDY    50  48  93 N8        29.85F
PRINCE ALBERT  PTCLDY    57  48  72 E12G20    29.90R
REGINA         MOCLDY    55  54  94 W6        29.90R
YORKTON        CLOUDY    54  48  82 SE9       29.94R
N. BATTLEFORD  LGT RAIN  52  52 100 N2        29.87S   C1F1C2F2C3F3C4F4C5F5C6F6C7F7C8F8C9F9CaFaCbFbCcFcCdFdCe!


USA.gov is the U.S. government's official web portal to all federal, state and local government web resources and services.